TimeGMT,TemperatureF,Dew PointF,Humidity,Sea Level PressureIn,VisibilityMPH,Wind Direction,Wind SpeedMPH,Gust SpeedMPH,PrecipitationIn,Events,Conditions,WindDirDegrees,DateUTC
12:20 AM,44.6,41.0,87,30.06,6.2,SW,20.7,-,N/A,Rain,Light Rain,230,2013-12-05 00:20:00
12:50 AM,44.6,42.8,93,30.04,5.0,WSW,19.6,32.2,N/A,Rain,Light Rain,240,2013-12-05 00:50:00
1:20 AM,44.6,42.8,93,30.01,3.7,SW,20.7,32.2,N/A,Rain,Rain,230,2013-12-05 01:20:00
1:50 AM,44.6,42.8,93,29.95,5.6,SW,20.7,33.4,N/A,Rain,Light Rain,230,2013-12-05 01:50:00
2:20 AM,44.6,42.8,93,29.92,5.0,SW,23.0,-,N/A,Rain,Rain,230,2013-12-05 02:20:00
2:50 AM,46.4,42.8,87,29.89,3.7,WSW,32.2,48.3,N/A,Rain,Rain,240,2013-12-05 02:50:00
3:20 AM,46.4,42.8,87,29.83,3.7,WSW,31.1,44.9,N/A,Rain,Rain,250,2013-12-05 03:20:00
3:50 AM,46.4,42.8,87,29.80,3.7,WSW,34.5,49.5,N/A,Rain,Light Rain,250,2013-12-05 03:50:00
4:20 AM,46.4,42.8,87,29.74,2.5,WSW,34.5,50.6,N/A,Rain,Light Rain,250,2013-12-05 04:20:00
4:50 AM,46.4,44.6,93,29.71,3.7,WSW,35.7,52.9,N/A,Rain,Rain,250,2013-12-05 04:50:00
5:20 AM,46.4,44.6,93,29.65,3.7,WSW,36.8,48.3,N/A,Rain,Rain,250,2013-12-05 05:20:00
5:50 AM,48.2,44.6,87,29.62,3.7,WSW,39.1,61.0,N/A,Rain,Rain,250,2013-12-05 05:50:00
6:20 AM,48.2,44.6,87,29.56,3.7,WSW,43.7,62.1,N/A,Rain,Rain,250,2013-12-05 06:20:00
6:50 AM,46.4,46.4,100,29.53,1.6,WSW,39.1,62.1,N/A,Rain,Light Rain,250,2013-12-05 06:50:00
7:20 AM,46.4,46.4,100,29.50,-9999.0,West,39.1,59.8,N/A,Rain,Light Rain,260,2013-12-05 07:20:00
7:50 AM,46.4,44.6,93,29.47,3.7,West,39.1,58.7,N/A,Rain,Light Rain,260,2013-12-05 07:50:00
8:20 AM,42.8,42.8,100,29.56,5.0,West,41.4,58.7,N/A,Rain,Light Rain Showers,280,2013-12-05 08:20:00
8:50 AM,39.2,39.2,100,29.59,6.2,West,38.0,63.3,N/A,Rain,Light Rain,280,2013-12-05 08:50:00
9:20 AM,41.0,37.4,87,29.62,5.0,West,31.1,55.2,N/A,Rain,Light Rain,280,2013-12-05 09:20:00
9:50 AM,41.0,37.4,87,29.62,5.0,West,28.8,50.6,N/A,Rain,Light Rain,280,2013-12-05 09:50:00
10:20 AM,42.8,37.4,81,29.62,4.3,West,24.2,-,N/A,Rain,Light Rain,270,2013-12-05 10:20:00
10:50 AM,41.0,35.6,81,29.71,6.2,WNW,19.6,-,N/A,,Scattered Clouds,300,2013-12-05 10:50:00
11:20 AM,42.8,35.6,76,29.74,6.2,WNW,17.3,-,N/A,,Scattered Clouds,300,2013-12-05 11:20:00
11:50 AM,42.8,32.0,66,29.83,6.2,WNW,23.0,-,N/A,Rain,Light Rain,290,2013-12-05 11:50:00
12:20 PM,41.0,32.0,70,29.86,6.2,WNW,21.9,-,N/A,,Scattered Clouds,300,2013-12-05 12:20:00
12:50 PM,41.0,32.0,70,29.86,6.2,WNW,27.6,41.4,N/A,,Scattered Clouds,300,2013-12-05 12:50:00
1:20 PM,42.8,28.4,57,29.89,6.2,WNW,27.6,-,N/A,,Scattered Clouds,300,2013-12-05 13:20:00
1:50 PM,42.8,28.4,57,29.92,6.2,NW,21.9,-,N/A,,Scattered Clouds,310,2013-12-05 13:50:00
2:20 PM,35.6,33.8,93,29.95,6.2,NW,16.1,-,N/A,,Mostly Cloudy,310,2013-12-05 14:20:00
2:50 PM,35.6,30.2,81,29.98,6.2,WNW,17.3,-,N/A,,Partly Cloudy,300,2013-12-05 14:50:00
3:20 PM,33.8,28.4,81,29.98,6.2,WNW,16.1,-,N/A,,Partly Cloudy,290,2013-12-05 15:20:00
3:50 PM,33.8,28.4,81,30.01,6.2,WNW,11.5,-,N/A,,Partly Cloudy,290,2013-12-05 15:50:00
4:20 PM,35.6,30.2,81,30.01,4.3,WNW,11.5,-,N/A,Snow,Light Snow Showers,290,2013-12-05 16:20:00
4:50 PM,33.8,32.0,93,30.04,6.2,West,11.5,-,N/A,,Scattered Clouds,280,2013-12-05 16:50:00
5:20 PM,33.8,30.2,87,30.04,-9999.0,West,13.8,-,N/A,,Clear,280,2013-12-05 17:20:00
5:50 PM,33.8,28.4,81,30.04,6.2,West,13.8,-,N/A,,Scattered Clouds,280,2013-12-05 17:50:00
6:20 PM,33.8,28.4,81,30.04,6.2,WNW,15.0,-,N/A,,Scattered Clouds,290,2013-12-05 18:20:00
6:50 PM,33.8,28.4,81,30.04,6.2,WNW,18.4,-,N/A,,Partly Cloudy,300,2013-12-05 18:50:00
7:20 PM,33.8,32.0,93,30.06,6.2,WNW,16.1,-,N/A,Snow,Light Snow Showers,290,2013-12-05 19:20:00
7:50 PM,32.0,32.0,100,30.06,6.2,WNW,13.8,-,N/A,Snow,Light Snow Showers,290,2013-12-05 19:50:00
8:20 PM,32.0,32.0,100,30.09,6.2,WNW,11.5,-,N/A,,Scattered Clouds,290,2013-12-05 20:20:00
8:50 PM,32.0,32.0,100,30.09,6.2,WNW,19.6,-,N/A,,Mostly Cloudy,290,2013-12-05 20:50:00
9:20 PM,32.0,30.2,93,30.09,6.2,WNW,9.2,-,N/A,,Partly Cloudy,290,2013-12-05 21:20:00
9:50 PM,32.0,28.4,87,30.12,6.2,WNW,6.9,-,N/A,,Partly Cloudy,290,2013-12-05 21:50:00
10:20 PM,32.0,28.4,87,30.12,6.2,WNW,12.7,-,N/A,,Partly Cloudy,300,2013-12-05 22:20:00
10:50 PM,33.8,26.6,75,30.12,-9999.0,WNW,17.3,-,N/A,,Clear,300,2013-12-05 22:50:00
11:20 PM,35.6,26.6,70,30.12,-9999.0,WNW,19.6,-,N/A,,Clear,300,2013-12-05 23:20:00
11:50 PM,33.8,26.6,75,30.12,-9999.0,WNW,16.1,-,N/A,,Clear,300,2013-12-05 23:50:00